Location: Newark
(34.0131°N, 4.3314°W)
Time: 19:51:17
(UTC+00:00)

SR - Pass Details

Date: 16 October 2019
Orbit: 573 x 882 km, 66.7° (Epoch: 21 November)

Event Time Altitude Azimuth Distance (km) Brightness Sun altitude
Rises 23:59:09 0° 237° (WSW) 2,985 - -64.7°
Reaches altitude 10° 00:01:42 10° 250° (WSW) 2,128 - -64.7°
Maximum altitude 00:05:44 26° 307° (NW) 1,416 - -64.7°
Drops below altitude 10° 00:10:06 10° 2° (N) 2,310 - -64.6°
Sets 00:13:00 0° 15° (NNE) 3,298 - -64.6°
